Location: *
(38.4303°S, 157.0822°W)
Time: 17:09:05
(UTC+00:00)

DMSP B5D2-2 - Pass Details

Date: 08 August 2024
Orbit: 787 x 802 km, 98.3° (Epoch: 06 September)

Event Time Altitude Azimuth Distance (km) Brightness Sun altitude
Rises 13:43:16 0° 147° (SSE) 3,344 7.8 -42.9°
Reaches altitude 10° 13:46:42 10° 124° (SE) 2,400 7.1 -42.3°
Maximum altitude 13:49:42 15° 89° (E) 2,047 6.7 -41.7°
Enters shadow 13:52:24 11° 57° (ENE) 2,320 6.8 -41.2°
